Temp
60 60 59 59 59 59 59 59 59 59 59 60 60 59 60 59 59 50 45 60 58 67 69 66 68 66 65 62 62 59 47 42 49 53 59 65 63 68 73 72 72 75 73 78 75
59 59 58 59 59 58 59 59 59 59 59 60 60 59 59 59 49 46 58 65 67 70 65 64 61 64 58 57 59 54 43 49 56 59 59 62 62 64 66 67 66 70 76 78 75
59 59 59 58 59 59 58 59 59 59 59 59 59 58 58 58 45 59 71 67 69 69 66 65 63 61 52 53 55 52 47 55 57 61 63 61 61 67 62 64 65 68 72 73 74
58 58 59 58 58 58 58 59 59 59 59 58 58 58 59 52 44 62 72 69 70 66 63 62 58 51 49 49 56 49 57 61 61 64 63 63 66 64 65 67 70 72 72 75 73
58 58 58 58 58 58 58 58 58 58 58 58 58 58 50 44 51 66 71 71 66 65 62 58 54 52 46 50 53 51 56 61 63 61 61 65 62 64 66 70 73 73 73 72 72
58 58 57 58 58 58 58 58 58 57 57 58 58 58 46 45 64 67 66 65 65 61 59 59 57 58 51 50 51 55 55 57 59 59 58 60 62 62 66 71 72 72 72 71 72
58 57 57 57 57 57 58 57 56 58 58 58 58 56 46 53 66 64 65 62 64 66 62 63 63 58 55 51 54 55 50 55 55 56 59 60 57 58 66 69 66 70 71 70 70
57 57 57 57 57 57 57 57 56 56 58 59 58 52 45 63 61 63 63 63 65 66 65 66 64 56 52 54 54 48 46 40 51 55 61 59 52 60 65 65 65 67 69 69 70
57 57 57 57 57 57 56 56 56 57 58 59 49 44 49 66 63 69 68 66 67 67 66 74 62 53 53 45 41 42 36 37 46 53 55 53 49 59 63 63 62 64 66 68 68
57 56 56 57 57 56 55 55 58 57 58 58 57 46 56 60 67 70 67 69 65 63 62 58 52 46 43 42 33 36 36 40 42 51 51 51 51 56 60 58 58 58 61 64 67
57 56 56 56 56 56 52 49 51 48 50 53 55 54 61 68 71 67 68 65 63 58 49 50 45 40 46 47 48 45 42 41 48 55 49 48 49 53 57 56 57 56 56 58 63
56 56 56 56 56 55 50 52 58 57 47 57 59 59 65 65 60 64 70 59 56 49 51 47 42 50 53 51 49 46 42 42 48 53 48 47 47 51 54 56 58 58 56 56 57
56 56 56 56 56 50 50 59 61 58 47 55 59 59 60 63 57 59 66 60 54 49 48 43 49 56 53 48 47 45 42 43 44 50 50 47 46 47 53 55 59 59 58 58 58
55 56 56 56 53 52 55 62 60 59 41 50 56 62 63 62 57 67 68 63 53 51 49 47 53 52 47 48 49 40 51 50 48 42 35 47 37 45 47 53 56 59 56 57 59
55 56 55 55 46 52 60 59 58 59 32 58 58 68 62 59 60 61 67 61 52 51 50 47 48 48 47 49 52 46 52 48 47 41 35 39 34 39 45 47 50 54 57 59 57
55 56 55 49 46 50 56 58 60 44 33 56 63 58 55 57 58 61 61 64 60 52 49 50 54 52 51 53 53 53 46 43 38 36 30 40 36 42 48 46 49 54 56 58 58
55 54 52 54 52 55 56 57 43 35 56 53 56 60 54 51 55 55 53 48 47 39 39 45 48 51 54 45 48 45 36 27 25 25 31 40 35 43 51 52 54 54 55 54 53
54 52 51 52 51 54 57 49 34 47 51 60 57 56 51 53 53 54 50 45 48 45 38 37 36 48 53 47 41 38 38 27 19 24 32 40 32 43 51 54 56 56 53 52 51
52 47 47 52 52 51 51 40 40 47 55 54 54 49 48 52 51 49 44 45 48 47 38 35 37 50 52 51 47 38 33 37 32 35 29 31 38 48 51 49 51 52 52 51 51
44 43 51 56 55 52 44 41 47 56 58 55 46 52 46 47 46 44 43 50 49 50 47 40 33 45 49 49 45 40 43 32 33 25 21 29 31 36 43 44 48 48 50 50 52
42 45 56 57 56 47 37 44 51 59 57 53 50 48 49 47 47 44 46 50 52 47 46 40 36 37 41 39 37 35 32 34 35 32 25 24 30 42 42 44 44 47 49 49 51
40 43 56 58 49 38 38 46 52 53 57 54 54 52 49 48 46 46 45 47 53 50 42 40 34 30 36 43 45 40 36 33 24 21 27 22 29 50 46 48 47 47 49 51 50
37 37 51 53 41 39 42 48 52 51 50 53 51 52 51 47 41 46 47 52 53 48 42 41 32 25 31 36 40 35 38 36 33 29 27 21 29 47 48 46 46 45 48 49 51
39 36 41 43 42 39 37 41 43 53 50 52 51 51 48 45 47 43 44 50 52 50 54 47 32 32 27 32 32 31 36 36 32 21 29 30 34 43 47 42 44 44 46 49 50
41 35 37 31 37 38 39 41 42 41 50 48 46 48 44 39 43 42 43 44 48 52 43 39 32 33 35 37 37 37 36 37 31 34 29 35 36 42 41 42 43 45 47 48 49
37 36 39 36 41 39 42 41 42 43 40 39 39 45 45 39 43 40 41 38 39 42 37 36 29 32 31 38 37 35 38 38 38 37 36 36 34 44 46 45 45 44 46 46 48
44 44 41 40 40 39 40 43 42 42 43 45 42 41 41 46 49 49 46 44 43 40 35 33 31 27 27 34 33 28 35 38 38 39 40 32 36 40 39 41 42 43 45 45 46
MSLP
1018.39 1017.95 1017.58 1017.15 1016.78 1016.53 1016.27 1016.04 1015.90 1015.70 1015.49 1015.29 1015.11 1014.98 1014.76 1014.43 1013.89 1013.68 1012.68 1009.89 1009.76 1009.60 1009.77 1009.95 1009.93 1010.03 1010.05 1010.51 1010.58 1011.25 1012.16 1012.62 1011.63 1010.72 1009.31 1008.46 1008.37 1007.89 1007.65 1007.34 1007.14 1006.47 1006.10 1005.47 1005.15
1018.28 1017.83 1017.43 1016.96 1016.57 1016.27 1016.00 1015.79 1015.57 1015.36 1015.14 1014.95 1014.82 1014.66 1014.50 1014.23 1013.98 1012.92 1009.50 1009.28 1009.53 1009.22 1009.91 1009.85 1010.09 1010.08 1010.50 1010.69 1010.81 1011.30 1011.97 1011.81 1011.15 1010.23 1009.48 1009.12 1008.86 1008.39 1008.09 1007.51 1007.22 1006.63 1005.74 1005.41 1005.29
1018.12 1017.61 1017.17 1016.76 1016.30 1015.91 1015.64 1015.41 1015.20 1015.02 1014.80 1014.64 1014.56 1014.47 1014.22 1013.98 1013.47 1009.71 1008.26 1008.67 1009.13 1009.48 1009.56 1009.61 1009.97 1010.13 1010.56 1010.91 1011.04 1010.96 1011.27 1010.95 1010.44 1009.94 1009.34 1008.99 1008.80 1008.39 1008.03 1007.02 1007.07 1006.78 1006.32 1005.94 1006.10
1017.95 1017.44 1016.91 1016.46 1016.06 1015.70 1015.35 1015.11 1014.91 1014.72 1014.55 1014.45 1014.40 1014.25 1013.93 1013.83 1011.76 1008.49 1007.83 1008.26 1009.11 1009.66 1009.83 1009.90 1010.18 1010.47 1010.62 1010.93 1010.53 1010.88 1010.80 1010.38 1010.11 1009.48 1009.21 1008.64 1008.60 1008.16 1007.63 1006.53 1006.57 1006.41 1006.39 1006.15 1006.08
1017.72 1017.20 1016.74 1016.29 1015.84 1015.46 1015.15 1014.86 1014.69 1014.60 1014.49 1014.36 1014.21 1014.09 1013.87 1013.03 1010.51 1008.61 1008.39 1008.55 1009.20 1009.65 1009.82 1009.94 1010.17 1010.32 1010.44 1010.63 1010.67 1010.92 1010.53 1010.02 1009.52 1009.45 1009.12 1008.71 1008.45 1008.03 1006.09 1006.51 1005.97 1005.93 1005.92 1005.72 1006.02
1017.59 1017.08 1016.57 1016.07 1015.65 1015.23 1014.96 1014.70 1014.48 1014.44 1014.39 1014.22 1014.06 1014.01 1013.77 1011.81 1008.68 1008.54 1008.75 1009.00 1009.15 1009.53 1009.82 1009.96 1009.96 1010.03 1010.25 1010.44 1010.60 1010.46 1010.27 1009.97 1009.38 1009.22 1008.79 1008.67 1007.83 1007.35 1005.84 1005.88 1005.66 1005.41 1005.16 1005.09 1005.44
1017.53 1017.05 1016.54 1015.98 1015.46 1015.06 1014.66 1014.43 1014.30 1014.13 1014.13 1014.02 1013.98 1013.94 1013.31 1010.20 1008.42 1008.67 1008.75 1008.87 1009.02 1009.18 1009.44 1009.44 1009.52 1009.80 1010.12 1010.42 1010.26 1010.36 1010.48 1009.98 1009.53 1008.97 1008.57 1008.35 1007.35 1006.47 1006.13 1005.79 1005.45 1005.05 1004.86 1004.55 1004.47
1017.34 1016.91 1016.45 1015.88 1015.31 1014.80 1014.40 1014.07 1013.93 1013.91 1013.79 1013.76 1013.92 1013.88 1011.82 1008.87 1008.58 1008.54 1008.59 1008.68 1008.72 1008.84 1008.93 1009.02 1009.22 1009.61 1009.89 1010.07 1010.48 1010.71 1010.89 1010.72 1009.90 1009.26 1008.34 1008.28 1007.07 1006.48 1006.13 1006.03 1005.61 1005.02 1004.97 1004.83 1004.51
1017.18 1016.70 1016.22 1015.72 1015.22 1014.62 1014.11 1013.70 1013.38 1013.48 1013.54 1013.63 1014.01 1013.64 1010.45 1008.48 1008.36 1007.43 1007.81 1008.19 1008.37 1008.53 1008.58 1008.82 1009.20 1010.08 1010.48 1011.07 1011.74 1011.83 1012.02 1011.62 1010.86 1009.60 1008.89 1008.39 1007.60 1006.89 1006.43 1006.61 1006.27 1005.75 1005.05 1004.72 1004.70
1017.03 1016.39 1015.87 1015.37 1014.95 1014.54 1014.04 1013.31 1012.94 1013.20 1013.46 1013.69 1013.53 1013.30 1009.94 1008.22 1007.45 1007.27 1007.42 1007.76 1008.08 1008.40 1008.59 1008.94 1009.67 1010.51 1011.37 1011.88 1012.34 1012.29 1012.15 1011.67 1011.08 1009.74 1009.09 1008.75 1008.06 1007.74 1006.99 1006.78 1006.24 1006.22 1005.69 1005.33 1004.60
1016.79 1016.14 1015.39 1014.83 1014.43 1014.24 1014.16 1013.65 1013.47 1013.18 1012.85 1011.59 1010.96 1010.43 1008.92 1007.72 1007.00 1007.13 1007.31 1007.80 1008.18 1008.62 1009.30 1009.70 1010.28 1010.77 1011.15 1011.47 1011.61 1011.90 1011.98 1011.79 1010.78 1009.59 1009.61 1008.93 1008.17 1007.76 1007.01 1006.58 1006.20 1005.80 1005.86 1005.22 1004.39
1016.55 1015.75 1015.14 1014.29 1013.83 1013.64 1013.80 1012.92 1011.47 1011.38 1011.10 1009.67 1009.10 1009.12 1008.39 1008.10 1007.89 1006.95 1006.99 1007.82 1008.43 1008.99 1009.57 1010.35 1010.29 1010.21 1010.34 1010.73 1011.20 1011.51 1011.58 1011.11 1010.33 1009.32 1009.50 1009.03 1007.90 1007.48 1007.18 1006.56 1005.81 1005.56 1005.56 1005.21 1004.42
1016.27 1015.52 1014.70 1013.88 1013.24 1013.35 1012.93 1011.34 1010.57 1010.92 1010.97 1008.60 1008.12 1007.81 1007.47 1007.87 1007.80 1006.99 1007.04 1007.52 1008.19 1009.02 1009.50 1010.13 1009.48 1009.32 1009.88 1010.19 1010.66 1010.67 1010.92 1010.58 1010.23 1009.37 1008.90 1008.52 1006.95 1006.96 1006.51 1005.94 1005.36 1004.97 1004.70 1004.44 1004.01
1015.95 1015.15 1014.46 1013.53 1013.05 1012.79 1012.19 1010.86 1010.56 1010.57 1010.38 1008.22 1007.22 1006.39 1006.79 1006.96 1006.91 1006.18 1006.33 1007.17 1008.05 1008.61 1009.34 1009.58 1008.86 1009.00 1009.41 1009.76 1010.02 1010.25 1009.87 1010.12 1010.13 1010.12 1009.89 1008.97 1006.39 1006.72 1006.19 1005.67 1005.00 1004.20 1004.21 1004.09 1003.76
1015.56 1014.68 1014.08 1014.01 1013.50 1012.63 1011.13 1010.99 1010.60 1010.47 1009.48 1007.03 1006.21 1005.48 1006.12 1006.55 1006.14 1006.00 1006.06 1006.68 1007.51 1008.35 1009.15 1008.97 1008.73 1008.77 1008.99 1009.14 1009.51 1009.81 1009.74 1010.18 1010.36 1010.54 1010.02 1009.63 1009.05 1005.74 1005.75 1005.24 1004.67 1004.28 1004.03 1003.63 1003.77
1015.09 1013.89 1013.55 1013.44 1013.52 1011.56 1010.70 1010.82 1010.71 1010.65 1008.28 1006.36 1005.79 1005.84 1006.32 1006.25 1006.16 1005.97 1006.14 1006.54 1007.11 1008.34 1008.82 1008.82 1008.60 1008.56 1008.46 1008.72 1009.24 1009.69 1010.09 1010.42 1010.73 1011.09 1010.00 1009.60 1009.20 1004.60 1004.95 1004.64 1004.44 1004.09 1003.86 1003.76 1003.63
1014.46 1013.11 1012.84 1012.41 1011.86 1010.87 1010.94 1010.92 1011.20 1009.98 1007.79 1006.99 1006.35 1006.13 1006.26 1006.39 1006.39 1006.49 1006.78 1007.33 1007.88 1008.72 1009.05 1009.01 1008.78 1008.64 1008.71 1009.22 1009.70 1010.30 1011.10 1011.78 1011.88 1011.99 1009.82 1008.98 1008.30 1005.59 1003.65 1004.21 1004.07 1004.02 1003.71 1004.04 1003.82
1013.78 1012.33 1011.85 1011.54 1011.17 1011.10 1010.92 1011.33 1011.07 1009.55 1008.52 1007.49 1006.97 1006.52 1006.61 1006.68 1006.87 1006.99 1007.31 1007.83 1008.15 1008.76 1009.43 1009.67 1009.58 1009.12 1009.26 1009.41 1010.13 1010.87 1011.88 1013.04 1012.56 1012.09 1010.63 1009.76 1007.70 1004.61 1004.04 1003.68 1003.78 1003.69 1003.83 1004.06 1003.59
1013.38 1012.06 1011.76 1010.93 1010.92 1011.60 1011.53 1011.40 1010.71 1009.80 1009.02 1008.19 1007.26 1006.95 1007.08 1007.20 1007.40 1007.68 1008.00 1008.21 1008.47 1008.88 1009.78 1010.41 1010.28 1009.55 1009.28 1009.80 1010.74 1011.70 1012.49 1012.99 1013.23 1012.67 1011.95 1010.04 1007.73 1005.57 1004.72 1004.69 1004.48 1004.24 1005.08 1004.20 1003.56
1014.17 1013.14 1011.91 1010.84 1010.97 1011.32 1011.83 1011.47 1010.74 1009.79 1009.18 1008.50 1007.99 1007.26 1007.42 1007.68 1007.87 1008.07 1008.17 1008.18 1008.50 1009.05 1009.49 1010.50 1010.91 1010.52 1010.35 1010.56 1011.48 1011.82 1012.69 1013.52 1014.02 1013.53 1012.15 1010.04 1008.87 1007.19 1006.18 1005.84 1005.58 1005.48 1005.37 1005.20 1004.67
1014.48 1013.16 1011.44 1010.99 1011.11 1011.78 1012.35 1011.77 1010.91 1010.13 1009.84 1009.02 1008.35 1008.09 1007.96 1008.15 1008.43 1008.62 1008.51 1008.61 1008.80 1009.56 1010.08 1011.01 1011.81 1011.76 1011.58 1011.43 1011.72 1012.70 1013.19 1013.86 1014.49 1014.34 1012.97 1011.28 1009.32 1008.12 1007.67 1007.04 1006.42 1006.00 1005.89 1005.60 1004.36
1015.52 1014.02 1011.56 1010.97 1012.04 1013.07 1013.09 1012.47 1011.62 1010.97 1010.27 1009.52 1008.80 1008.57 1008.49 1008.67 1008.86 1008.89 1008.87 1008.82 1008.93 1009.54 1010.70 1011.52 1012.18 1012.47 1011.94 1011.51 1011.64 1012.09 1012.79 1013.61 1014.37 1014.37 1013.66 1012.78 1009.10 1007.32 1007.39 1007.27 1006.40 1006.05 1005.45 1004.94 1004.72
1016.97 1015.66 1012.30 1011.94 1013.28 1014.01 1013.82 1013.08 1012.28 1011.63 1011.67 1010.73 1009.82 1009.38 1009.16 1009.27 1009.50 1009.29 1009.28 1009.30 1009.45 1009.99 1010.76 1011.60 1012.53 1013.03 1012.46 1012.29 1011.97 1012.29 1012.73 1013.13 1013.76 1014.22 1013.32 1012.81 1009.32 1007.71 1007.29 1006.98 1006.76 1006.69 1006.00 1005.33 1004.37
1017.43 1016.79 1015.20 1014.52 1015.05 1015.19 1014.94 1013.92 1013.07 1012.36 1012.18 1011.85 1010.86 1010.02 1009.97 1009.93 1009.79 1010.08 1009.93 1009.74 1009.87 1010.16 1010.65 1011.41 1012.41 1012.94 1013.03 1012.63 1012.53 1012.65 1012.59 1012.85 1013.40 1013.53 1012.50 1010.96 1009.27 1007.67 1007.77 1007.67 1007.18 1006.91 1006.55 1005.56 1004.89
1017.97 1018.29 1017.99 1017.08 1016.35 1016.30 1015.74 1014.77 1014.05 1013.44 1012.87 1012.73 1012.02 1011.21 1011.29 1010.93 1010.57 1010.39 1010.32 1010.38 1010.35 1010.57 1011.39 1012.07 1012.86 1013.14 1012.90 1012.56 1012.42 1012.19 1012.11 1012.20 1012.55 1012.19 1012.05 1009.55 1009.43 1008.12 1008.01 1007.75 1007.44 1007.10 1006.44 1006.00 1005.20
1018.75 1018.80 1018.13 1017.74 1017.05 1016.52 1015.72 1015.09 1014.47 1013.94 1014.18 1013.72 1013.31 1012.29 1012.01 1011.72 1011.24 1010.80 1010.73 1010.92 1011.07 1011.34 1011.86 1012.64 1013.22 1013.43 1013.14 1012.41 1012.19 1011.78 1011.26 1011.14 1011.12 1011.25 1010.66 1009.89 1009.02 1008.12 1007.91 1007.82 1007.57 1007.24 1006.86 1006.37 1005.46
1018.87 1018.56 1018.41 1018.05 1017.35 1016.74 1015.81 1015.15 1014.72 1014.93 1014.48 1014.05 1013.84 1013.35 1011.98 1011.31 1010.82 1010.41 1010.46 1010.62 1010.95 1011.56 1012.33 1013.10 1013.56 1013.99 1013.30 1012.59 1012.23 1011.36 1010.41 1010.51 1010.60 1010.42 1010.10 1009.77 1009.04 1008.72 1008.35 1008.10 1007.85 1007.39 1006.88 1005.97 1005.02
Wind_Speed
18 18 18 17 17 17 16 15 15 14 14 13 12 11 12 13 13 4 8 12 9 15 1 1 0 3 3 2 3 4 4 5 7 7 10 3 4 1 2 5 5 5 3 7 5
18 18 17 17 17 15 16 15 14 13 13 13 11 11 11 11 6 9 14 10 12 10 6 5 3 4 2 2 2 4 4 8 6 5 6 4 4 5 4 10 4 7 11 5 3
19 19 18 17 17 15 15 15 14 12 12 11 11 11 10 9 4 7 6 17 15 4 3 3 2 3 3 2 3 3 5 4 3 5 6 3 4 4 3 19 6 8 10 3 6
19 19 19 18 17 16 14 14 13 12 11 10 10 10 11 1 2 2 8 15 13 6 1 5 3 3 4 4 3 1 5 5 7 8 7 10 6 9 10 18 6 9 7 7 7
19 19 19 19 17 16 14 12 12 11 10 9 7 8 4 2 9 4 9 15 7 6 5 4 4 4 2 2 2 4 5 6 7 7 7 10 9 13 22 8 12 9 10 10 10
19 19 19 18 18 16 14 12 10 9 9 8 6 4 2 3 3 5 8 7 6 5 6 5 5 5 2 2 4 3 3 6 5 6 4 6 9 7 2 8 13 11 14 10 12
20 20 20 18 17 17 15 12 10 9 9 7 4 3 1 13 2 5 6 5 6 5 5 4 3 3 4 3 2 2 3 7 4 4 5 4 10 10 7 8 11 13 13 8 11
22 20 22 20 18 16 16 13 11 9 6 6 3 1 8 5 2 4 5 3 4 5 2 3 2 2 2 1 6 4 4 3 5 4 7 6 14 8 6 7 10 11 8 6 10
24 22 21 21 20 17 16 17 14 8 4 5 3 1 10 6 3 4 7 4 6 5 4 3 3 2 4 4 5 6 3 2 8 5 5 5 6 6 7 5 10 10 11 11 8
23 23 22 22 20 18 16 15 4 7 4 5 4 3 6 2 3 3 3 4 1 2 3 4 5 3 4 5 4 4 3 3 5 6 4 10 15 10 12 6 10 9 10 12 15
24 23 23 22 20 15 10 1 2 1 3 8 6 6 5 6 3 3 4 6 1 2 3 2 2 6 8 7 6 3 3 5 10 14 5 10 14 12 12 9 11 9 9 12 16
25 24 24 24 21 16 2 3 3 3 8 13 17 8 8 3 5 3 8 5 5 6 4 5 8 8 5 4 4 5 5 9 7 11 6 8 14 10 7 8 10 8 8 10 8
24 23 23 24 21 2 4 5 5 5 2 7 5 5 6 9 7 8 8 4 4 5 6 7 7 5 5 3 4 4 5 5 7 7 4 5 13 6 6 6 7 7 7 7 9
25 24 21 23 1 2 5 0 3 5 4 6 3 5 5 6 5 9 8 6 1 9 7 6 4 3 3 5 6 4 5 6 6 4 5 2 20 9 4 10 9 11 8 9 10
26 26 19 10 5 3 1 6 3 3 4 2 2 2 3 7 2 2 3 4 7 5 6 8 2 2 3 5 3 8 3 4 5 7 4 2 6 2 2 7 9 9 10 9 7
27 28 22 2 2 8 6 6 1 3 5 2 4 4 5 2 2 2 3 4 2 5 2 7 1 3 4 0 3 1 2 3 3 2 9 9 9 20 17 7 6 6 6 9 9
29 30 16 4 4 2 4 2 3 3 5 4 4 2 2 2 3 2 3 3 6 3 5 2 4 1 1 0 1 5 6 5 5 2 10 4 6 16 9 5 8 8 7 7 8
32 31 5 4 4 5 1 5 2 3 5 4 4 6 3 1 2 3 3 2 2 3 2 5 5 4 4 4 2 1 6 5 7 6 14 6 8 17 2 3 6 7 4 6 5
28 4 2 4 5 1 5 2 3 1 5 8 9 3 2 0 3 0 1 3 3 3 5 4 5 4 3 2 4 1 3 2 3 7 7 6 10 14 5 9 13 3 5 4 4
7 4 4 5 4 3 5 2 2 3 8 5 4 2 4 1 1 2 2 1 1 4 3 2 2 3 3 3 4 3 4 1 1 5 6 4 4 8 9 9 10 10 8 8 11
3 5 3 6 2 6 3 1 3 10 12 4 4 4 1 3 3 3 3 1 2 2 4 4 4 3 1 5 6 1 1 2 1 4 5 5 4 5 5 5 8 8 7 9 9
4 3 4 5 3 2 1 4 7 9 17 6 3 3 1 3 3 5 5 2 2 5 4 2 5 4 8 4 6 4 6 6 5 7 4 4 10 7 2 8 7 12 11 11 9
3 4 5 3 2 2 5 4 2 3 5 7 5 4 3 1 3 1 1 1 3 4 6 6 1 3 8 5 4 2 4 4 2 2 7 4 10 3 5 9 7 9 14 13 14
3 5 6 6 3 4 4 4 5 6 7 7 6 3 3 2 1 2 2 2 2 2 4 7 4 7 7 7 4 4 4 5 6 3 7 13 20 21 12 6 8 8 10 13 13
4 1 2 5 3 6 3 3 10 6 3 5 9 8 7 4 4 4 3 3 3 1 3 4 3 4 5 8 6 10 11 10 9 13 10 19 17 17 5 6 6 8 10 14 17
2 3 4 3 4 4 2 2 10 2 2 4 7 13 9 4 8 8 5 4 6 1 3 2 2 1 5 10 8 12 11 9 10 4 7 9 12 8 4 4 6 8 12 16 17
2 1 3 3 4 4 2 3 5 10 5 9 8 10 10 12 9 12 7 4 3 6 5 3 4 2 5 3 8 6 4 4 5 7 9 6 5 6 7 9 9 15 16 18 18
Wind_Direction
333 329 326 322 319 315 313 312 310 308 306 307 307 309 310 309 317 334 248 220 191 225 60 84 1 142 90 135 138 127 91 213 209 189 238 331 347 342 295 232 327 274 295 266 118
336 334 328 323 318 316 313 310 308 307 305 306 308 312 312 314 286 244 249 227 221 134 148 148 130 124 95 161 158 136 157 219 209 217 274 286 285 315 333 291 263 310 305 321 125
337 334 331 326 321 317 313 310 309 305 306 308 311 315 314 322 281 245 215 211 203 231 76 108 100 111 135 130 196 174 217 202 248 243 250 248 275 237 261 279 202 268 286 323 299
338 334 331 328 325 319 316 312 309 308 307 312 313 314 311 184 98 19 26 160 174 172 167 102 91 103 125 186 216 197 234 216 240 233 253 264 227 252 219 253 241 247 237 279 229
336 334 333 330 325 322 318 315 314 311 308 308 311 319 337 291 252 299 97 132 121 132 145 128 131 145 172 205 172 193 247 261 258 270 246 265 255 255 258 264 275 255 265 233 238
334 332 334 331 326 322 319 313 310 308 304 301 304 309 304 287 226 312 129 133 131 129 162 171 192 192 195 217 163 208 250 280 292 267 240 236 247 190 335 219 259 258 259 233 219
333 333 334 331 326 322 314 308 298 294 297 291 286 243 318 241 120 349 156 171 170 165 163 205 161 133 148 270 215 274 293 329 256 255 234 184 284 235 244 251 256 264 257 247 229
334 334 333 331 326 320 315 307 296 288 282 270 194 245 250 246 262 295 165 231 194 214 225 219 157 232 183 350 22 8 47 34 291 335 272 159 257 305 277 268 255 266 268 256 263
333 333 331 328 325 321 317 308 291 261 220 143 136 205 272 323 272 234 160 200 160 214 241 217 157 129 37 77 11 5 253 334 316 296 290 183 281 290 315 264 276 280 286 294 268
333 331 328 324 323 322 321 313 98 130 139 165 265 329 272 189 258 186 219 116 179 354 35 86 60 100 47 73 243 267 299 261 253 275 213 275 276 268 278 244 250 255 267 268 267
331 328 325 322 320 319 328 278 11 349 214 211 192 256 291 279 289 185 147 106 93 104 194 3 106 201 219 198 212 229 231 244 261 272 234 258 269 268 265 294 284 258 241 254 255
327 326 326 321 319 321 192 219 194 186 294 231 251 241 264 38 326 284 128 133 146 189 126 15 255 215 198 196 208 229 259 273 276 262 175 269 263 238 245 249 249 254 279 256 269
326 328 330 322 321 64 242 232 122 113 286 294 193 196 207 146 211 256 155 154 167 175 181 176 227 99 166 246 250 247 201 252 238 304 296 262 273 285 238 246 268 257 239 250 244
326 328 331 333 346 359 261 4 306 180 28 275 253 252 137 150 237 205 179 142 197 215 162 229 261 214 157 245 170 268 226 253 277 352 278 106 287 267 222 241 250 256 252 266 273
324 323 328 320 296 228 215 319 275 67 343 188 179 110 145 161 300 158 180 86 197 187 122 242 156 146 210 233 130 237 323 299 278 270 282 177 278 263 187 246 248 262 265 283 276
322 319 327 87 172 248 318 313 28 47 255 17 117 170 143 221 327 48 135 66 171 166 246 239 268 190 218 235 194 301 350 299 58 135 257 250 194 275 262 231 244 253 254 283 298
321 316 318 167 229 313 301 54 37 204 310 13 29 12 238 227 141 138 174 185 192 141 246 319 217 223 141 305 240 68 46 329 323 318 265 185 214 248 275 194 233 253 277 313 303
322 313 204 215 270 344 46 62 204 294 10 352 339 299 171 121 55 4 5 319 3 110 115 173 311 183 193 163 241 358 151 178 259 263 290 335 243 254 30 233 264 244 161 239 13
322 325 352 275 215 82 74 121 230 293 342 321 311 221 155 104 140 47 189 201 204 178 157 149 269 305 22 94 110 229 184 204 264 246 267 237 286 301 45 28 0 70 314 39 74
316 336 319 345 134 67 76 214 279 259 339 310 277 264 211 221 84 59 264 235 281 56 70 192 293 255 289 75 26 162 157 175 261 275 255 232 268 252 354 360 3 3 325 301 298
347 35 271 339 67 49 124 227 298 344 355 314 298 284 317 168 191 219 247 334 142 107 77 131 150 266 308 193 198 156 125 93 203 239 291 310 284 332 294 319 317 302 310 293 287
350 48 317 345 46 39 72 313 333 334 340 292 313 306 262 164 249 222 211 238 43 147 161 149 157 227 231 268 248 167 188 162 131 278 252 207 267 228 311 312 342 327 343 355 340
3 285 316 49 64 22 322 318 289 26 353 308 302 5 6 230 296 316 259 38 131 144 173 184 212 349 332 353 350 198 191 172 132 117 223 230 264 201 289 0 3 339 335 340 345
29 352 333 26 26 46 356 302 340 353 279 323 283 41 1 301 151 264 280 246 320 225 169 142 156 176 206 232 186 263 240 216 172 196 268 235 278 281 293 324 328 323 324 332 330
30 357 171 324 334 333 294 310 298 291 286 359 313 27 8 310 314 249 245 311 320 56 83 121 204 195 252 258 247 257 259 249 206 237 238 279 264 281 263 281 293 302 327 329 326
75 18 355 280 290 303 230 275 285 307 8 272 258 327 327 259 247 272 215 208 235 5 128 14 255 118 273 266 260 265 258 250 255 238 291 295 289 268 295 313 317 317 321 312 309
310 313 103 308 301 299 244 285 334 350 258 243 258 316 275 267 277 258 225 200 191 176 186 145 155 110 263 315 308 276 218 221 229 225 259 269 258 335 314 310 303 304 297 292 288